This demonstration page uses our WeatherBlox Daily Observations layout. Learn more.

36.19886, -115.1175

Hourly Observations for July 26, 2019

Temp ( °F °C ) Dew Point ( °F °C ) Humidity (%) Winds ( mph kmh ) Pressure ( in mb ) Visibility ( mi km ) Precip ( " mm )
12:34 am 00:34 Clear 91 32.8 56 13.3 31 31 WNW 7 11 29.77 1008 10 16.09344 0 0
12:45 am 00:45 Clear with Nearby Thunderstorms 90 32.2 55 12.8 31 31 NNE 6 9 29.77 1008 10 16.09344 0 0
12:53 am 00:53 Clear with Nearby Thunderstorms 89 31.7 55 12.8 31 31 N 5 7 29.88 1012 10 16.09344 0 0
1:02 am 01:02 Clear 89 31.7 55 12.8 31 31 N 6 9 29.8 1009 10 16.09344 0 0
1:53 am 01:53 Clear 88 31.1 55 12.8 33 33 NNW 9 15 29.88 1012 10 16.09344 0 0
2:53 am 02:53 Clear 88 31.1 55 12.8 33 33 E 3 6 29.88 1012 10 16.09344 0 0
3:53 am 03:53 Clear 86 30 55 12.8 35 35 NNE 6 9 29.91 1013 10 16.09344 0 0
4:53 am 04:53 Clear 86 30 56 13.3 36 36 N 12 19 29.91 1013 10 16.09344 0 0
5:53 am 05:53 Sunny 84 28.9 56 13.3 38 38 NNW 6 9 29.94 1014 10 16.09344 0 0
6:53 am 06:53 Sunny 86 30 57 13.9 37 37 NW 6 9 29.94 1014 10 16.09344 0 0
7:53 am 07:53 Sunny 89 31.7 56 13.3 33 33 NNW 6 9 29.97 1015 10 16.09344 0 0
8:53 am 08:53 Sunny 91 32.8 56 13.3 31 31 N 5 7 29.97 1015 10 16.09344 0 0
9:53 am 09:53 Sunny 95 35 56 13.3 27 27 ESE 3 6 29.97 1015 10 16.09344 0 0
10:53 am 10:53 Sunny 96 35.6 56 13.3 26 26 ESE 3 6 29.97 1015 10 16.09344 0 0
11:53 am 11:53 Sunny 98 36.7 56 13.3 24 24 SSE 10 17 29.94 1014 10 16.09344 0 0
12:53 pm 12:53 Sunny 101 38.3 54 12.2 21 21 S 12 19 29.91 1013 10 16.09344 0 0
1:53 pm 13:53 Partly Cloudy 103 39.4 53 11.7 19 19 SW 10 17 29.88 1012 10 16.09344 0 0
3:53 pm 15:53 Mostly Sunny 105 40.6 51 10.6 16 16 W 12 19 29.83 1010 10 16.09344 0 0
4:07 pm 16:07 Sunny with Thunderstorms 105 40.6 52 11.1 17 17 W 12 19 29.65 1004 10 16.09344 0 0
4:53 pm 16:53 Sunny with Thunderstorms 105 40.6 51 10.6 16 16 W 12 19 29.83 1010 10 16.09344 0 0
5:53 pm 17:53 Sunny with Thunderstorms 104 40 50 10 16 16 WSW 9 15 29.8 1009 10 16.09344 0 0
6:03 pm 18:03 Sunny with Nearby Thunderstorms 104 40 50 10 16 16 WSW 12 19 29.65 1004 10 16.09344 0 0
6:53 pm 18:53 Sunny with Nearby Thunderstorms 103 39.4 49 9.4 16 16 WSW 12 19 29.83 1010 10 16.09344 0 0
7:11 pm 19:11 Sunny 103 39.4 49 9.4 16 16 W 10 17 29.68 1005 10 16.09344 0 0
7:53 pm 19:53 Clear 101 38.3 48 8.9 17 17 W 13 20 29.83 1010 10 16.09344 0 0
8:53 pm 20:53 Clear 99 37.2 48 8.9 18 18 WSW 8 13 29.85 1011 10 16.09344 0 0
9:53 pm 21:53 Clear 98 36.7 49 9.4 19 19 W 3 6 29.85 1011 10 16.09344 0 0
10:53 pm 22:53 Clear 93 33.9 54 12.2 27 27 NNW 21 33 29.88 1012 10 16.09344 0 0
11:53 pm 23:53 Clear 92 33.3 53 11.7 27 27 NNW 17 28 29.91 1013 10 16.09344 0 0

Powered by AerisWeather